Location: Alafon
(8.4500°N, 4.2333°E)
Time: 13:05:56
(UTC+00:00)

Vanguard 1 Rocket - Pass Details

Date: 01 August 2021
Orbit: 650 x 4226 km, 34.3° (Epoch: 27 September)

Event Time Altitude Azimuth Distance (km) Brightness Sun altitude
Exits shadow 03:58:09 - 205° (SSW) 6,687 11.4 -23.2°
Reaches altitude 10° 03:59:38 10° 202° (SSW) 6,531 11.3 -22.9°
Maximum altitude 04:20:17 36° 142° (SE) 5,508 11.4 -18.2°
Drops below altitude 10° 04:41:38 10° 84° (E) 6,896 13.2 -13.2°
Sets 04:47:08 0° 76° (ENE) 7,559 14.1 -12.0°
